This demonstration page uses our WeatherBlox Daily Observations layout. Learn more.

Left ArrowRight Arrow

40.92501, -98.34201

Hourly Observations for July 6, 2021

Temp ( °F °C ) Dew Point ( °F °C ) Humidity (%) Winds ( mph kmh ) Pressure ( in mb ) Visibility ( mi km ) Precip ( " mm )
12:53 am 00:53 Clear 75 23.9 62 16.7 64 64 S 9 15 29.98 1015 10 16 0.00 0.00
1:53 am 01:53 Clear 73 22.8 60 15.6 64 64 S 12 19 29.98 1015 10 16 0.00 0.00
2:53 am 02:53 Clear 72 22.2 60 15.6 66 66 S 12 19 29.97 1015 10 16 0.00 0.00
3:53 am 03:53 Clear 71 21.7 60 15.6 68 68 S 10 17 29.97 1015 10 16 0.00 0.00
4:53 am 04:53 Clear 70 21.1 60 15.6 71 71 S 8 13 29.97 1015 10 16 0.00 0.00
5:53 am 05:53 Clear 69 20.6 60 15.6 73 73 S 8 13 29.98 1015 10 16 0.00 0.00
6:53 am 06:53 Sunny 71 21.7 61 16.1 71 71 SSW 9 15 29.98 1015 10 16 0.00 0.00
7:53 am 07:53 Sunny 74 23.3 62 16.7 67 67 SSW 13 20 29.98 1015 10 16 0.00 0.00
8:53 am 08:53 Sunny 78 25.6 63 17.2 60 60 SSW 12 19 29.98 1015 10 16 0.00 0.00
9:53 am 09:53 Sunny 82 27.8 65 18.3 56 56 SSW 14 22 29.98 1015 10 16 0.00 0.00
10:21 am 10:21 Sunny 83 28.3 66 18.9 57 57 SSW 10 17 29.90 1012 10 16 0.00 0.00
10:53 am 10:53 Sunny 85 29.4 67 19.4 55 55 SSW 9 15 29.96 1015 10 16 0.00 0.00
11:53 am 11:53 Sunny 87 30.6 67 19.4 51 51 S 14 22 29.96 1014 10 16 0.00 0.00
12:53 pm 12:53 Partly Cloudy 90 32.2 67 19.4 47 47 S 16 26 29.93 1014 10 16 0.00 0.00
1:53 pm 13:53 Partly Cloudy 89 31.7 64 17.8 43 43 S 8 13 29.93 1014 10 16 0.00 0.00
2:53 pm 14:53 Partly Cloudy 87 30.6 64 17.8 46 46 SSW 10 17 29.97 1015 10 16 0.00 0.00
3:26 pm 15:26 Mostly Cloudy 77 25 61 16.1 58 58 WNW 22 35 29.95 1014 10 16 0.00 0.00
3:32 pm 15:32 Mostly Cloudy with Nearby Thunderstorms 77 25 62 16.7 60 60 NW 17 28 29.94 1014 10 16 0.00 0.00
3:53 pm 15:53 Mostly Cloudy 76 24.4 64 17.8 67 67 NNW 13 20 29.99 1016 7 11 0.00 0.00
4:53 pm 16:53 Cloudy with Rain 72 22.2 67 19.4 84 84 WSW 8 13 29.98 1015 3 5 0.04 1.02
5:53 pm 17:53 Mostly Sunny 72 22.2 67 19.4 84 84 W 5 7 29.95 1014 10 16 0.04 1.02
6:53 pm 18:53 Mostly Cloudy 73 22.8 67 19.4 81 81 NNW 9 15 29.96 1015 10 16 0.00 0.00
7:53 pm 19:53 Mostly Cloudy 74 23.3 68 20 82 82 NNW 9 15 29.96 1014 10 16 0.00 0.00
8:53 pm 20:53 Mostly Sunny 72 22.2 68 20 87 87 N 8 13 29.96 1015 10 16 0.00 0.00
9:53 pm 21:53 Mostly Clear 70 21.1 67 19.4 90 90 N 5 7 29.98 1015 10 16 0.00 0.00
11:53 pm 23:53 Mostly Cloudy 70 21.1 67 19.4 90 90 NNW 9 15 30.00 1016 8 13 0.00 0.00

Powered by AerisWeather